Stampede Pass, WA

7:09 PM PDT on June 23, 2017 (GMT -0700)
Stampede Pass

Weather History for KSMP - December, 2011

Change the Weather History Date:

Friday, December 23, 2011

  Actual Average Record
Temperature  
Mean Temperature 26 °F -  
Max Temperature 35 °F 27 °F 41 °F (2005)
Min Temperature 18 °F 21 °F 1 °F (1998)
Degree Days  
Heating Degree Days 38    
Moisture  
Dew Point 29 °F    
Average Humidity 91    
Maximum Humidity 100    
Minimum Humidity 41    
Precipitation  
Precipitation 0.07 in - - ()
Sea Level Pressure  
Sea Level Pressure 30.45 in    
Wind  
Wind Speed 7 mph (WNW)    
Max Wind Speed 13 mph    
Max Gust Speed 23 mph    
Visibility 5 miles    
Events Fog , Rain , Snow    
Averages and records for this station are not official NWS values.
T = Trace of Precipitation, MM = Missing Value Source: NWS Daily Summary

Daily Weather History Graph

Daily Weather History Graph

Search for Another Location

Airport or City:

Trip Planner

Search our weather history database for the weather conditions in past years. The results will help you decide how hot, cold, wet, or windy it might be!

Date:

Astronomy

Dec. 23, 2011 Rise Set
Actual Time 7:50 AM PST 4:18 PM PST
Civil Twilight 7:14 AM PST 4:54 PM PST
Nautical Twilight 6:35 AM PST 5:33 PM PST
Astronomical Twilight 5:58 AM PST 6:10 PM PST
Moon 6:46 AM PST (12/23) 3:31 PM PST (12/23)
Length of Visible Light 9h 39m
Length of Day
8h 28m
Waning Crescent, 1% of the Moon is Illuminated
Dec 23
Waning Crescent
Dec 24
New
Dec 31
First Quarter
Jan 8
Full
Jan 16
Last Quarter

Hourly Weather History & Observations

Time (PST) Temp. Windchill Dew Point Humidity Pressure Visibility Wind Dir Wind Speed Gust Speed Precip Events Conditions
12:56 AM 18.0 °F 7.7 °F 16.0 °F 92% 30.44 in 10.0 mi East 8.1 mph - N/A   Clear
1:56 AM 18.0 °F 8.7 °F 16.0 °F 92% 30.45 in 10.0 mi East 6.9 mph - N/A   Clear
2:56 AM 30.0 °F 23.2 °F 9.0 °F 41% 30.43 in 10.0 mi WNW 6.9 mph - N/A   Mostly Cloudy
3:56 AM 32.0 °F 22.5 °F 10.4 °F 41% 30.34 in 10.0 mi WNW 12.7 mph 23.0 mph N/A   Overcast
4:37 AM 32.0 °F 23.6 °F 14.0 °F 48% 30.33 in 10.0 mi WNW 10.4 mph 19.6 mph N/A   Overcast
4:56 AM 32.0 °F 24.2 °F 16.0 °F 52% 30.44 in 10.0 mi WNW 9.2 mph 18.4 mph N/A   Overcast
5:56 AM 30.9 °F 26.2 °F 24.1 °F 76% 30.45 in 10.0 mi Variable 4.6 mph - N/A   Overcast
6:07 AM 30.2 °F 24.3 °F 24.8 °F 80% 30.34 in 4.0 mi WNW 5.8 mph - 0.00 in Snow Light Snow
6:23 AM 30.2 °F 23.4 °F 28.4 °F 93% 30.34 in 3.0 mi Variable 6.9 mph - 0.00 in   Overcast
6:39 AM 28.4 °F 23.3 °F 28.4 °F 100% 30.35 in 1.8 mi Variable 4.6 mph - 0.01 in   Overcast
6:45 AM 28.4 °F 24.6 °F 28.4 °F 100% 30.35 in 0.8 mi Variable 3.5 mph - 0.01 in   Overcast
6:56 AM 30.0 °F 25.2 °F 28.9 °F 96% 30.47 in 0.5 mi Variable 4.6 mph - 0.01 in Fog Light Freezing Fog
7:56 AM 30.9 °F 25.2 °F 30.0 °F 96% 30.48 in 0.2 mi Variable 5.8 mph - 0.01 in Fog Light Freezing Fog
8:06 AM 30.2 °F 25.4 °F 30.2 °F 100% 30.37 in 0.8 mi Variable 4.6 mph - N/A   Mist
8:17 AM 30.2 °F 24.3 °F 30.2 °F 100% 30.37 in 0.5 mi Variable 5.8 mph - 0.00 in Fog , Rain Light Freezing Rain
8:27 AM 30.2 °F 24.3 °F 30.2 °F 100% 30.38 in 0.5 mi Variable 5.8 mph - 0.00 in Fog Light Freezing Fog
8:37 AM 30.2 °F 21.9 °F 30.2 °F 100% 30.39 in 0.2 mi WNW 9.2 mph - 0.01 in Fog , Snow Light Snow
8:56 AM 30.9 °F 24.3 °F 30.9 °F 100% 30.52 in 0.2 mi West 6.9 mph - 0.02 in Fog , Snow Light Snow
9:25 AM 32.0 °F 24.2 °F 30.2 °F 93% 30.43 in 0.5 mi WNW 9.2 mph 17.3 mph 0.02 in Fog , Snow Light Snow
9:39 AM 32.0 °F 24.2 °F 30.2 °F 93% 30.43 in 0.2 mi West 9.2 mph 19.6 mph 0.03 in Fog Fog
9:56 AM 32.0 °F 24.2 °F 32.0 °F 100% 30.55 in 0.2 mi West 9.2 mph 20.7 mph 0.03 in Fog Fog
10:56 AM 32.0 °F 25.6 °F 32.0 °F 100% 30.55 in 0.2 mi Variable 6.9 mph - 0.00 in Fog Fog
11:21 AM 33.8 °F 25.8 °F 32.0 °F 93% 30.43 in 2.0 mi West 10.4 mph 18.4 mph N/A   Overcast
11:28 AM 33.8 °F 25.8 °F 32.0 °F 93% 30.43 in 6.0 mi West 10.4 mph 20.7 mph N/A   Mostly Cloudy
11:44 AM 33.8 °F 25.8 °F 32.0 °F 93% 30.44 in 10.0 mi West 10.4 mph 19.6 mph N/A   Overcast
11:56 AM 33.1 °F 24.9 °F 33.1 °F 100% 30.57 in 10.0 mi West 10.4 mph 19.6 mph N/A   Overcast
12:08 PM 33.8 °F 26.4 °F 33.8 °F 100% 30.45 in 9.0 mi West 9.2 mph 17.3 mph N/A   Overcast
1:03 PM 33.8 °F 25.8 °F 33.8 °F 100% 30.43 in 1.8 mi WNW 10.4 mph 17.3 mph N/A   Overcast
1:09 PM 33.8 °F 27.7 °F 33.8 °F 100% 30.43 in 7.0 mi Variable 6.9 mph 17.3 mph N/A   Overcast
1:16 PM 33.8 °F 25.8 °F 33.8 °F 100% 30.43 in 1.8 mi West 10.4 mph 17.3 mph N/A   Overcast
1:20 PM 33.8 °F 27.0 °F 33.8 °F 100% 30.44 in 2.0 mi West 8.1 mph 20.7 mph N/A   Overcast
1:35 PM 33.8 °F 27.0 °F 33.8 °F 100% 30.44 in 9.0 mi West 8.1 mph - N/A   Overcast
1:56 PM 34.0 °F 28.8 °F 33.1 °F 96% 30.55 in 9.0 mi Variable 5.8 mph - N/A   Mostly Cloudy
2:17 PM 33.8 °F 27.7 °F 33.8 °F 100% 30.44 in 6.0 mi Variable 6.9 mph - N/A   Mostly Cloudy
2:30 PM 33.8 °F 26.4 °F 32.0 °F 93% 30.43 in 10.0 mi West 9.2 mph - N/A   Partly Cloudy
2:56 PM 34.0 °F 28.0 °F 33.1 °F 96% 30.52 in 10.0 mi Variable 6.9 mph - N/A   Clear
6:56 PM 34.0 °F - 30.9 °F 89% 30.56 in 10.0 mi Calm Calm - N/A   Overcast
7:53 PM 33.8 °F - 30.2 °F 87% 30.46 in 10.0 mi Calm Calm - N/A   Overcast
7:56 PM 34.0 °F - 30.9 °F 89% 30.54 in 10.0 mi Calm Calm - N/A   Overcast
9:37 PM 33.8 °F - 33.8 °F 100% 30.45 in 2.5 mi Calm Calm - N/A   Overcast
9:56 PM 34.0 °F - 34.0 °F 100% 30.52 in 5.0 mi Calm Calm - N/A   Overcast
10:37 PM 33.8 °F - 33.8 °F 100% 30.45 in 2.0 mi Calm Calm - N/A   Overcast
10:46 PM 35.6 °F - 33.8 °F 93% 30.45 in 9.0 mi Calm Calm - N/A   Overcast
10:56 PM 35.1 °F - 34.0 °F 96% 30.53 in 10.0 mi Calm Calm - N/A   Overcast
11:50 PM 35.6 °F - 33.8 °F 93% 30.46 in 3.0 mi Calm Calm - N/A   Overcast
11:56 PM 35.1 °F - 34.0 °F 96% 30.53 in 9.0 mi Calm Calm - N/A   Overcast